Impacts METAR Board
IDs:

KCVG - Cincinnati Intl, KY, US

Updated at: 2100 UTC 02 Oct 2022
Potential Impact None Slight Moderate High
Time 02/09Z 02/10Z 02/11Z 02/12Z 02/13Z 02/14Z 02/15Z 02/16Z 02/17Z 02/18Z 02/19Z 02/20Z 02/21Z
Temp52 52 53 52 55 59 62 65 67 69 69 69 68
Dewpt47 49 49 50 51 52 51 51 51 50 50 49 48
Altim30.09 30.10 30.12 30.14 30.16 30.18 30.19 30.20 30.19 30.19 30.17 30.18 30.18
VIS10 10 10 10 10 10 10 10 10 10 10 10 10
CIG-- -- -- -- -- -- -- -- -- -- -- -- --
CoverCLRCLRFEWFEWFEWSCTSCTSCTSCTSCTSCTSCTSCT
FltCatVFRVFRVFRVFRVFRVFRVFRVFRVFRVFRVFRVFRVFR
WX--------------------------
WDir340360360360102030201020101030
WSpd9 10 12 11 14 16 17 17 20 12 21 16 14
WGst-- -- -- -- -- -- -- 21 -- -- 26 22 20
Raw hourly METARs
KCVG 020852Z 34009KT 10SM CLR 11/08 A3009 RMK AO2 SLP184 T01110083 53005
KCVG 020952Z 36010KT 10SM CLR 11/09 A3010 RMK AO2 SLP189 T01110094
KCVG 021052Z 36012KT 10SM FEW250 12/09 A3012 RMK AO2 SLP195 T01170094
KCVG 021152Z 36011KT 10SM FEW130 11/10 A3014 RMK AO2 SLP202 T01110100 10133 20111 53016
KCVG 021252Z 01014KT 10SM FEW040 13/11 A3016 RMK AO2 SLP208 T01280106
KCVG 021352Z 02016KT 10SM SCT020 15/11 A3018 RMK AO2 SLP213 T01500111
KCVG 021452Z 03017KT 10SM SCT022 17/11 A3019 RMK AO2 SLP218 T01670106 51017
KCVG 021552Z 02017G21KT 10SM SCT027 18/11 A3020 RMK AO2 SLP220 T01830106
KCVG 021652Z 01020KT 10SM SCT029 19/11 A3019 RMK AO2 SLP218 T01940106
KCVG 021752Z 02012KT 10SM SCT033 21/10 A3019 RMK AO2 SLP216 T02060100 10206 20111 58002
KCVG 021852Z 01021G26KT 10SM SCT037 21/10 A3017 RMK AO2 PK WND 01026/1851 SLP213 T02060100
KCVG 021952Z 01016G22KT 10SM SCT040 21/09 A3018 RMK AO2 SLP214 T02060094
KCVG 022052Z 03014G20KT 10SM SCT040 20/09 A3018 RMK AO2 SLP217 T02000089 55001



Page loaded:  21:56 UTC  |   02:56 PM Pacific  |   03:56 PM Mountain  |   04:56 PM Central  |   05:56 PM Eastern

 

ADVISORIES

FORECASTS

FORECASTS

OBSERVATIONS

USER TOOLS

ABOUT US